STARLINK-34040 (63839 NORAD) Tracking and Keplerian Element Data

This shows tracking and keplerian element data for the satellite.

Feedback or suggestion? Click here.




ElementValue
Catalog63839
NameSTARLINK-34040
Epoch Orbit3581
Epoch Day354.18352194
Epoch Year2025
RAAN166.8349
Inclination42.9995
Eccentricity0.000158
Argument of Perigee271.5097
Mean Anonmoly88.5573
Mean Motion15.27586945
Decay Rate0.00015628
L11 63839U 25093D 25354.18352194 .00015628 00000+0 57612-3 0 9995
L22 63839 42.9995 166.8349 0001580 271.5097 88.5573 15.27586945 35816



Live tracking and technical data element details for STARLINK-34040 (NORAD 63839). STARLINK-34040 can be tracked NOW for your location showing map with azimuth and elevation plus other details from your city location.







IsCatalogInMostPopularTable: catalog: 63839, numindb: 1
Update: records affected: 1



GetName: 63839 STARLINK-34040

Hit Count: updated at: Tue, 10 Feb 2026 03:00:23 GMT